Search for airport 
image banner adimage banner ad
image banner ad

LEVITR - Villanueva del Trabuco

Located in , Spain

ICAO - , IATA -

Data provided by Airmate  

General information

Coordinates: N37°3'49" W4°19'49"
Elevation is 2416 feet MSL.
 
Rated:
View ratings: [VIEW]


View others Airports in Málaga

Operational data

Open for public use
Current time UTC:
Current local time:
Weather at : LEMG - Malaga/Costa Del Sol ( 46 km )
METAR: LEMG 071300Z 13010KT CAVOK 29/16 Q1015 NOSIG
TAF: TAF LEMG 071100Z 0712/0812 12009KT CAVOK TX31/0811Z TN20/0804Z BECMG 0719/0722 VRB02KT PROB30 TEMPO 0720/0724 3000 BR BKN005 PROB40 TEMPO 0801/0806 29006KT BECMG 0807/0810 13008KT
View NOTAMs / SUP AIP / TFR affecting this airport [VIEW]
Communications frequencies: [VIEW]

Runways:

RWY identifierQFULength (ft)Width (ft)SurfaceLDA (ft)
219680DIRT
039680DIRT

Airport contact information

Address: Spain

Satellite view of LEVITR